Location: Newark
(49.8969°N, 3.3422°E)
Time: 13:38:14
(UTC+00:00)

deb Explorer IX - Pass Details

Date: 28 January 2020
Orbit: 549 x 1099 km, 38.8° (Epoch: 24 February)

Event Time Altitude Azimuth Distance (km) Brightness Sun altitude
Rises 23:33:59 0° 260° (W) 3,822 - -57.8°
Reaches altitude 10° 23:36:59 10° 250° (WSW) 2,910 - -57.9°
Maximum altitude 23:43:04 30° 193° (SSW) 1,847 - -58.1°
Drops below altitude 10° 23:49:10 10° 136° (SE) 2,918 - -58.2°
Sets 23:52:12 0° 126° (SE) 3,834 - -58.2°
